Change the Weather History Date:

Sunday, December 11, 2011

  Actual Average Record
Temperature  
Mean Temperature 33 °F 24 °F  
Max Temperature 41 °F 33 °F 50 °F (1998)
Min Temperature 25 °F 15 °F -9 °F (2013)
Degree Days  
Heating Degree Days 32 41  
Month to date heating degree days 454 429  
Since 1 July heating degree days 1775 1883  
Cooling Degree Days 0 0  
Month to date cooling degree days 0 0  
Year to date cooling degree days 973 752  
Moisture  
Dew Point 30 °F    
Average Humidity 83    
Maximum Humidity 92    
Minimum Humidity 73    
Precipitation  
Precipitation 0.01 in 0.04 in 0.42 in (2007)
Month to date precipitation 1.05 0.56  
Year to date precipitation 30.31  
Sea Level Pressure  
Sea Level Pressure 30.24 in    
Wind  
Wind Speed 11 mph (South)    
Max Wind Speed 23 mph    
Max Gust Speed 30 mph    
Visibility 5 miles    
Events      
T = Trace of Precipitation, MM = Missing Value Source: NWS Daily Summary

Daily Weather History Graph

Daily Weather History Graph

Search for Another Location

Airport or City:

Trip Planner

Search our weather history database for the weather conditions in past years. The results will help you decide how hot, cold, wet, or windy it might be!

Date:

Astronomy

Dec. 11, 2011 Rise Set
Actual Time 7:32 AM CST 4:43 PM CST
Civil Twilight 7:00 AM CST 5:14 PM CST
Nautical Twilight 6:25 AM CST 5:49 PM CST
Astronomical Twilight 5:51 AM CST 6:23 PM CST
Moon 5:54 PM CST (12/11) 8:21 AM CST (12/11)
Length of Visible Light 10h 14m
Length of Day
9h 10m
Full, 99% of the Moon is Illuminated
Dec 11
Full
Dec 17
Last Quarter
Dec 24
New
Jan 1
First Quarter
Jan 9
Full

Hourly Weather History & Observations

Time (CST) Temp. Windchill Dew Point Humidity Pressure Visibility Wind Dir Wind Speed Gust Speed Precip Events Conditions
12:53 AM 28.0 °F 20.0 °F 25.0 °F 88% 30.28 in 7.0 mi SW 8.1 mph - N/A   Clear
1:53 AM 27.0 °F 19.5 °F 24.1 °F 89% 30.28 in 6.0 mi SSW 6.9 mph - N/A   Clear
2:53 AM 27.0 °F 19.5 °F 24.1 °F 89% 30.29 in 6.0 mi SSW 6.9 mph - N/A   Clear
3:53 AM 26.1 °F 20.5 °F 24.1 °F 92% 30.28 in 6.0 mi SSW 4.6 mph - N/A   Clear
4:53 AM 26.1 °F 19.4 °F 24.1 °F 92% 30.28 in 6.0 mi South 5.8 mph - N/A   Clear
5:53 AM 26.1 °F 17.6 °F 24.1 °F 92% 30.28 in 6.0 mi SSW 8.1 mph - N/A   Clear
6:53 AM 25.0 °F 15.5 °F 23.0 °F 92% 30.29 in 5.0 mi SSW 9.2 mph - N/A   Clear
7:02 AM 26.6 °F 16.2 °F 23.0 °F 86% 30.26 in 5.0 mi SSW 11.5 mph - N/A   Scattered Clouds
7:10 AM 26.6 °F 15.7 °F 24.8 °F 93% 30.27 in 5.0 mi SW 12.7 mph - N/A   Mostly Cloudy
9:53 AM 32.0 °F 22.1 °F 30.9 °F 96% 30.30 in 2.5 mi SSW 13.8 mph - N/A   Overcast
10:51 AM 33.8 °F 25.8 °F 32.0 °F 93% 30.26 in 3.0 mi SSW 10.4 mph - 0.01 in   Overcast
10:53 AM 35.1 °F 26.9 °F 32.0 °F 89% 30.29 in 3.0 mi SSW 11.5 mph - 0.01 in   Overcast
11:32 AM 35.6 °F 27.5 °F 33.8 °F 93% 30.25 in 4.0 mi SSW 11.5 mph 20.7 mph N/A   Overcast
11:53 AM 37.9 °F 28.5 °F 34.0 °F 86% 30.26 in 4.0 mi SSW 17.3 mph 23.0 mph N/A   Overcast
12:06 PM 37.4 °F 28.5 °F 33.8 °F 87% 30.24 in 5.0 mi SSW 15.0 mph - N/A   Overcast
12:53 PM 39.0 °F 29.9 °F 33.1 °F 79% 30.25 in 5.0 mi SSW 17.3 mph 25.3 mph N/A   Haze
1:53 PM 39.9 °F 31.8 °F 34.0 °F 79% 30.23 in 6.0 mi SSW 15.0 mph 21.9 mph N/A   Haze
2:11 PM 39.2 °F 31.2 °F 33.8 °F 81% 30.20 in 6.0 mi SSW 13.8 mph - N/A   Haze
2:53 PM 39.9 °F 32.1 °F 34.0 °F 79% 30.20 in 6.0 mi South 13.8 mph - N/A   Haze
3:11 PM 39.2 °F 32.5 °F 33.8 °F 81% 30.18 in 6.0 mi South 10.4 mph - N/A   Haze
3:53 PM 39.9 °F 34.5 °F 35.1 °F 83% 30.20 in 5.0 mi SSE 8.1 mph - N/A   Haze
4:38 PM 39.2 °F 33.0 °F 33.8 °F 81% 30.18 in 5.0 mi SSE 9.2 mph - N/A   Haze
4:53 PM 39.0 °F 32.3 °F 34.0 °F 82% 30.20 in 5.0 mi SSE 10.4 mph - N/A   Haze
5:53 PM 37.9 °F 29.2 °F 34.0 °F 86% 30.21 in 6.0 mi SSE 15.0 mph 21.9 mph N/A   Overcast
6:53 PM 37.9 °F 30.5 °F 33.1 °F 83% 30.20 in 6.0 mi SSE 11.5 mph - N/A   Haze
7:53 PM 37.0 °F 29.8 °F 33.1 °F 86% 30.20 in 6.0 mi SSE 10.4 mph - N/A   Overcast
9:53 PM 41.0 °F 34.3 °F 34.0 °F 76% 30.19 in 8.0 mi South 11.5 mph - N/A   Overcast
11:53 PM 41.0 °F 34.7 °F 34.0 °F 76% 30.19 in 9.0 mi South 10.4 mph - N/A   Overcast